Location: Elliott Island road
(38.3470°N, 75.9376°W)
Time: 19:36:25
(UTC-05:00)

OTV 5 (USA 277) - Visible Passes

Search period start: 21 January 2018 00:00
Search period end: 31 January 2018 00:00
Orbit: 404 x 417 km, 43.0° (Epoch: 07 September)

Date Brightness Start Highest point End Pass type
(mag) Time Alt. Az. Time Alt. Az. Time Alt. Az.
21 Jan ? 17:57:47 10° SSE 17:58:46 11° SE 17:59:45 10° ESE visible
21 Jan ? 19:32:17 10° SW 19:33:24 19° SW 19:33:24 19° SW visible
22 Jan ? 18:41:24 10° SW 18:44:36 41° SSE 18:44:58 40° SE visible
23 Jan ? 17:50:44 10° SSW 17:53:38 27° SSE 17:56:29 10° E visible
23 Jan ? 19:27:27 10° W 19:29:15 28° W 19:29:15 28° W visible
24 Jan ? 18:36:19 10° WSW 18:39:41 86° NNW 18:40:43 42° ENE visible
25 Jan ? 17:45:18 10° SW 17:48:39 65° SSE 17:52:00 10° ENE visible
25 Jan ? 19:22:52 10° W 19:24:54 29° WNW 19:24:54 29° WNW visible
26 Jan ? 18:31:39 10° W 18:34:57 48° NNW 18:36:18 29° NE visible
27 Jan ? 19:18:20 10° WNW 19:20:26 28° NW 19:20:26 28° NW visible
28 Jan ? 18:27:08 10° WNW 18:30:17 36° N 18:31:48 23° NE visible
29 Jan ? 19:13:38 10° WNW 19:15:58 32° NNW 19:15:58 32° NNW visible
30 Jan ? 18:22:30 10° WNW 18:25:40 36° N 18:27:23 21° ENE visible
30 Jan ? 19:59:52 10° WNW 20:00:09 12° WNW 20:00:09 12° WNW visible
